TimeAKDT,TemperatureF,Dew PointF,Humidity,Sea Level PressureIn,VisibilityMPH,Wind Direction,Wind SpeedMPH,Gust SpeedMPH,PrecipitationIn,Events,Conditions,WindDirDegrees,DateUTC
12:16 AM,28.4,6.8,40,29.84,10.0,ENE,12.7,-,N/A,,Clear,70,2012-10-29 08:16:00
12:36 AM,28.4,6.8,40,29.84,10.0,ENE,16.1,-,N/A,,Clear,70,2012-10-29 08:36:00
12:56 AM,28.4,6.8,40,29.85,10.0,East,11.5,-,N/A,,Clear,80,2012-10-29 08:56:00
1:16 AM,28.4,6.8,40,29.84,10.0,ENE,16.1,24.2,N/A,,Clear,70,2012-10-29 09:16:00
1:36 AM,28.4,6.8,40,29.84,10.0,East,16.1,-,N/A,,Clear,80,2012-10-29 09:36:00
1:56 AM,28.4,6.8,40,29.83,10.0,ENE,18.4,24.2,N/A,,Clear,70,2012-10-29 09:56:00
2:16 AM,28.4,6.8,40,29.84,10.0,East,12.7,-,N/A,,Clear,80,2012-10-29 10:16:00
2:36 AM,28.4,6.8,40,29.83,10.0,ENE,16.1,23.0,N/A,,Clear,70,2012-10-29 10:36:00
2:56 AM,28.4,6.8,40,29.83,10.0,ENE,13.8,-,N/A,,Clear,70,2012-10-29 10:56:00
3:16 AM,28.4,6.8,40,29.83,10.0,ENE,17.3,21.9,N/A,,Clear,70,2012-10-29 11:16:00
3:36 AM,28.4,6.8,40,29.83,10.0,ENE,15.0,19.6,N/A,,Clear,70,2012-10-29 11:36:00
3:56 AM,28.4,6.8,40,29.83,10.0,ENE,13.8,17.3,N/A,,Clear,70,2012-10-29 11:56:00
4:16 AM,28.4,6.8,40,29.82,10.0,ENE,15.0,18.4,N/A,,Clear,70,2012-10-29 12:16:00
4:36 AM,28.4,6.8,40,29.82,10.0,ENE,15.0,20.7,N/A,,Clear,70,2012-10-29 12:36:00
4:56 AM,28.4,6.8,40,29.82,10.0,ENE,16.1,21.9,N/A,,Clear,70,2012-10-29 12:56:00
5:16 AM,28.4,6.8,40,29.82,10.0,ENE,17.3,23.0,N/A,,Clear,70,2012-10-29 13:16:00
5:36 AM,28.4,6.8,40,29.82,10.0,ENE,12.7,19.6,N/A,,Clear,60,2012-10-29 13:36:00
5:56 AM,28.4,5.0,37,29.82,10.0,East,12.7,21.9,N/A,,Clear,80,2012-10-29 13:56:00
6:16 AM,28.4,6.8,40,29.82,10.0,ENE,11.5,20.7,N/A,,Clear,70,2012-10-29 14:16:00
6:36 AM,28.4,6.8,40,29.82,10.0,ENE,11.5,20.7,N/A,,Clear,60,2012-10-29 14:36:00
6:56 AM,28.4,6.8,40,29.82,10.0,ENE,13.8,-,N/A,,Clear,70,2012-10-29 14:56:00
7:16 AM,28.4,5.0,37,29.82,10.0,East,12.7,20.7,N/A,,Clear,80,2012-10-29 15:16:00
7:36 AM,28.4,5.0,37,29.82,10.0,ENE,16.1,20.7,N/A,,Clear,70,2012-10-29 15:36:00
7:56 AM,28.4,6.8,40,29.82,10.0,ENE,15.0,20.7,N/A,,Clear,60,2012-10-29 15:56:00
8:16 AM,28.4,5.0,37,29.83,10.0,ENE,12.7,21.9,N/A,,Clear,70,2012-10-29 16:16:00
8:36 AM,28.4,5.0,37,29.84,10.0,ENE,16.1,20.7,N/A,,Clear,70,2012-10-29 16:36:00
8:56 AM,28.4,6.8,40,29.84,10.0,East,16.1,24.2,N/A,,Clear,80,2012-10-29 16:56:00
9:16 AM,28.4,5.0,37,29.85,10.0,ENE,12.7,20.7,N/A,,Clear,70,2012-10-29 17:16:00
9:36 AM,28.4,5.0,37,29.85,10.0,East,11.5,-,N/A,,Clear,80,2012-10-29 17:36:00
9:56 AM,28.4,5.0,37,29.85,10.0,ENE,17.3,21.9,N/A,,Clear,70,2012-10-29 17:56:00
10:16 AM,28.4,6.8,40,29.86,10.0,ENE,11.5,20.7,N/A,,Clear,70,2012-10-29 18:16:00
10:36 AM,30.2,6.8,37,29.85,10.0,East,13.8,23.0,N/A,,Clear,80,2012-10-29 18:36:00
10:56 AM,30.2,6.8,37,29.86,10.0,East,10.4,16.1,N/A,,Clear,80,2012-10-29 18:56:00
11:16 AM,30.2,6.8,37,29.86,10.0,ENE,16.1,21.9,N/A,,Clear,70,2012-10-29 19:16:00
11:36 AM,30.2,6.8,37,29.87,10.0,ENE,15.0,23.0,N/A,,Clear,70,2012-10-29 19:36:00
11:56 AM,30.2,6.8,37,29.87,10.0,ENE,12.7,19.6,N/A,,Clear,60,2012-10-29 19:56:00
12:16 PM,30.2,6.8,37,29.87,10.0,ENE,13.8,19.6,N/A,,Clear,70,2012-10-29 20:16:00
12:36 PM,32.0,6.8,35,29.88,10.0,East,12.7,20.7,N/A,,Clear,80,2012-10-29 20:36:00
12:56 PM,32.0,6.8,35,29.88,10.0,East,15.0,20.7,N/A,,Clear,80,2012-10-29 20:56:00
1:16 PM,32.0,6.8,35,29.87,10.0,ENE,17.3,20.7,N/A,,Clear,70,2012-10-29 21:16:00
1:36 PM,33.8,6.8,32,29.88,10.0,East,12.7,19.6,N/A,,Clear,80,2012-10-29 21:36:00
1:56 PM,33.8,8.6,35,29.88,10.0,ENE,16.1,-,N/A,,Clear,60,2012-10-29 21:56:00
2:16 PM,33.8,6.8,32,29.89,10.0,ENE,11.5,-,N/A,,Clear,70,2012-10-29 22:16:00
2:36 PM,33.8,8.6,35,29.90,10.0,NE,10.4,-,N/A,,Clear,50,2012-10-29 22:36:00
2:56 PM,33.8,6.8,32,29.91,10.0,ENE,11.5,-,N/A,,Clear,70,2012-10-29 22:56:00
3:16 PM,33.8,6.8,32,29.91,10.0,East,12.7,20.7,N/A,,Clear,80,2012-10-29 23:16:00
3:36 PM,32.0,6.8,35,29.91,10.0,ENE,15.0,21.9,N/A,,Clear,60,2012-10-29 23:36:00
3:56 PM,32.0,6.8,35,29.91,10.0,ENE,15.0,-,N/A,,Clear,70,2012-10-29 23:56:00
4:16 PM,32.0,6.8,35,29.92,10.0,ENE,12.7,21.9,N/A,,Clear,70,2012-10-30 00:16:00
4:36 PM,32.0,6.8,35,29.93,10.0,East,10.4,-,N/A,,Clear,80,2012-10-30 00:36:00
4:56 PM,30.2,6.8,37,29.93,10.0,ENE,11.5,18.4,N/A,,Clear,70,2012-10-30 00:56:00
5:16 PM,30.2,6.8,37,29.93,10.0,East,11.5,18.4,N/A,,Clear,80,2012-10-30 01:16:00
5:36 PM,30.2,6.8,37,29.94,10.0,ENE,11.5,18.4,N/A,,Clear,70,2012-10-30 01:36:00
5:56 PM,30.2,6.8,37,29.95,10.0,ENE,9.2,-,N/A,,Clear,70,2012-10-30 01:56:00
6:16 PM,30.2,6.8,37,29.96,10.0,East,5.8,-,N/A,,Clear,100,2012-10-30 02:16:00
6:36 PM,28.4,3.2,34,29.96,10.0,SE,4.6,-,N/A,,Clear,130,2012-10-30 02:36:00
6:56 PM,30.2,6.8,37,29.96,10.0,East,8.1,-,N/A,,Clear,90,2012-10-30 02:56:00
7:16 PM,28.4,3.2,34,29.97,10.0,ESE,8.1,-,N/A,,Clear,110,2012-10-30 03:16:00
7:36 PM,28.4,3.2,34,29.98,10.0,South,6.9,-,N/A,,Clear,180,2012-10-30 03:36:00
7:56 PM,28.4,6.8,40,29.98,10.0,ENE,10.4,-,N/A,,Clear,70,2012-10-30 03:56:00
8:16 PM,28.4,5.0,37,29.98,10.0,East,9.2,-,N/A,,Clear,100,2012-10-30 04:16:00
8:36 PM,28.4,8.6,43,29.99,10.0,SSE,5.8,-,N/A,,Clear,150,2012-10-30 04:36:00
8:56 PM,26.6,6.8,43,30.00,10.0,South,3.5,-,N/A,,Clear,170,2012-10-30 04:56:00
9:16 PM,28.4,10.4,47,30.00,10.0,East,8.1,-,N/A,,Clear,100,2012-10-30 05:16:00
9:36 PM,28.4,8.6,43,30.01,10.0,SE,5.8,-,N/A,,Clear,130,2012-10-30 05:36:00
9:56 PM,28.4,8.6,43,30.01,10.0,East,8.1,-,N/A,,Clear,100,2012-10-30 05:56:00
10:16 PM,26.6,10.4,51,30.02,10.0,East,6.9,-,N/A,,Clear,100,2012-10-30 06:16:00
10:36 PM,26.6,8.6,47,30.02,10.0,ESE,4.6,-,N/A,,Clear,120,2012-10-30 06:36:00
10:56 PM,26.6,10.4,51,30.02,10.0,East,10.4,-,N/A,,Clear,100,2012-10-30 06:56:00
11:16 PM,26.6,8.6,47,30.03,10.0,SE,9.2,-,N/A,,Clear,140,2012-10-30 07:16:00
11:36 PM,26.6,10.4,51,30.04,10.0,East,8.1,-,N/A,,Clear,100,2012-10-30 07:36:00
11:56 PM,26.6,8.6,47,30.05,10.0,East,8.1,-,N/A,,Clear,80,2012-10-30 07:56:00